Date,Time,M05 Relative Humidity (AVG),M05 Precipitation (SUM),M05 WIND SPEED (AVG),Duration (SUM),M05 Temperature (AVG),M05 Pyranometer 0 - 2000 W/m² (AVG),WIND DIRECTION (AVG),M05 Barometric Pressure (AVG),Daily ETo,Duration
29/07/2015,00:00:00,55.7,0.0,1.0,0.0,28.5,336.5,154.2,999.6,0.00,0.0
30/07/2015,00:00:00,55.7,0.0,1.0,0.0,28.5,336.5,154.2,999.6,6.27,0.0
31/07/2015,00:00:00,57.1,0.0,0.9,0.0,28.4,340.0,162.7,999.7,6.19,0.0
01/08/2015,00:00:00,62.4,0.0,0.9,0.0,27.7,335.9,167.8,999.4,5.98,0.0
02/08/2015,00:00:00,48.6,0.0,1.7,0.0,30.6,325.5,170.9,1001.3,7.00,0.0
03/08/2015,00:00:00,52.0,0.0,2.2,0.0,28.8,324.2,199.4,1003.8,6.68,0.0
04/08/2015,00:00:00,55.6,0.0,1.8,0.0,28.5,325.1,185.3,1003.7,6.60,0.0
05/08/2015,00:00:00,59.1,0.0,1.1,0.0,28.0,319.3,140.9,1002.4,6.00,0.0
06/08/2015,00:00:00,57.7,0.0,1.0,0.0,27.5,329.5,156.1,1001.2,5.89,0.0
07/08/2015,00:00:00,60.9,0.0,1.1,0.0,28.1,331.0,141.0,1000.1,6.00,0.0
08/08/2015,00:00:00,65.1,0.0,1.2,0.0,27.7,306.3,138.3,1001.3,5.58,0.0
09/08/2015,00:00:00,62.2,0.0,1.3,0.0,27.9,314.7,133.0,1004.1,5.96,0.0
10/08/2015,00:00:00,61.7,0.0,1.8,0.0,28.1,318.7,186.0,1005.1,6.13,0.0
11/08/2015,00:00:00,62.0,0.0,1.3,0.0,27.4,324.9,149.9,1004.4,5.87,0.0
12/08/2015,00:00:00,65.8,0.0,1.1,0.0,26.9,322.1,151.3,1004.6,5.56,0.0
13/08/2015,00:00:00,69.4,0.0,1.0,0.0,27.0,324.5,152.4,1005.5,5.59,0.0
14/08/2015,00:00:00,61.8,0.0,0.9,0.0,27.8,316.8,170.1,1002.9,5.60,0.0
15/08/2015,00:00:00,55.4,0.0,1.1,0.1,28.2,171.1,100.3,1001.7,3.78,0.1
16/08/2015,00:00:00,76.9,6.8,1.1,179.9,26.4,277.7,141.3,1001.5,4.61,179.9
17/08/2015,00:00:00,72.0,0.0,1.2,0.0,27.2,315.5,139.7,1002.2,5.53,0.0
18/08/2015,00:00:00,65.1,0.0,1.1,0.0,27.5,318.1,162.4,1002.8,5.63,0.0
19/08/2015,00:00:00,62.4,0.0,1.3,0.0,26.8,327.1,142.7,1002.5,5.81,0.0
20/08/2015,00:00:00,61.7,0.0,1.4,0.0,27.0,325.8,151.0,1003.2,6.01,0.0
21/08/2015,00:00:00,57.4,0.0,0.8,0.0,27.1,320.1,143.9,1005.6,5.60,0.0
22/08/2015,00:00:00,57.3,0.0,1.3,0.0,28.0,316.7,160.3,1004.1,5.93,0.0
23/08/2015,00:00:00,55.2,0.0,2.4,0.0,27.2,317.1,181.6,1002.6,6.45,0.0
24/08/2015,00:00:00,56.8,0.0,2.3,0.0,26.7,317.6,180.5,1002.6,6.34,0.0
25/08/2015,00:00:00,48.9,0.0,2.4,0.0,26.3,316.6,162.1,1003.4,6.40,0.0
26/08/2015,00:00:00,45.7,0.0,2.8,0.0,26.1,318.7,178.3,1003.4,6.81,0.0
27/08/2015,00:00:00,48.6,0.0,2.9,0.0,25.5,312.3,174.9,1003.6,6.55,0.0
28/08/2015,00:00:00,53.0,0.0,2.2,0.0,25.5,310.6,187.2,1005.1,6.14,0.0
29/08/2015,00:00:00,53.2,0.0,1.3,0.0,26.2,306.5,142.6,1007.1,5.85,0.0
30/08/2015,00:00:00,45.8,0.0,2.0,0.0,26.1,313.6,151.5,1007.4,6.46,0.0
31/08/2015,00:00:00,43.9,0.0,1.8,0.0,26.8,303.0,165.1,1006.7,6.34,0.0
01/09/2015,00:00:00,50.3,0.0,0.9,0.0,26.4,296.7,136.2,1005.9,5.33,0.0
02/09/2015,00:00:00,53.6,0.0,1.0,0.0,26.6,301.5,146.2,1005.1,5.36,0.0
03/09/2015,00:00:00,65.8,0.0,1.4,0.0,25.0,301.9,153.4,1005.0,5.15,0.0
04/09/2015,00:00:00,76.9,0.0,1.2,0.0,25.8,283.0,144.4,1004.4,4.73,0.0
05/09/2015,00:00:00,64.2,0.0,0.9,0.0,26.3,289.2,130.3,1004.4,5.04,0.0
06/09/2015,00:00:00,50.3,0.0,0.9,0.0,27.8,292.5,140.1,1005.8,5.29,0.0
07/09/2015,00:00:00,47.2,0.0,0.8,0.0,28.2,288.8,145.0,1005.8,5.29,0.0
08/09/2015,00:00:00,32.8,0.0,1.3,0.0,32.1,265.9,146.0,1003.8,6.12,0.0
09/09/2015,00:00:00,45.5,0.0,1.4,0.0,29.5,268.2,135.4,1003.5,5.53,0.0
10/09/2015,00:00:00,60.4,0.0,1.2,0.0,27.7,271.2,135.9,1005.0,5.01,0.0
11/09/2015,00:00:00,63.3,0.0,0.9,0.0,27.1,265.6,163.7,1006.2,4.69,0.0
12/09/2015,00:00:00,53.1,0.0,1.0,0.0,28.1,245.6,140.6,1007.9,4.88,0.0
13/09/2015,00:00:00,51.4,0.0,2.0,0.0,26.7,284.5,165.1,1007.0,5.87,0.0
14/09/2015,00:00:00,56.7,0.0,2.4,0.0,24.9,278.3,179.5,1006.6,5.40,0.0
15/09/2015,00:00:00,60.2,0.0,2.1,0.0,24.3,284.8,173.3,1007.2,5.27,0.0
16/09/2015,00:00:00,60.0,0.0,2.0,0.0,24.7,272.3,172.5,1006.7,5.09,0.0
17/09/2015,00:00:00,58.7,0.0,1.4,0.0,24.6,270.5,153.7,1005.3,4.99,0.0
18/09/2015,00:00:00,51.2,0.0,1.0,0.0,25.7,261.0,122.5,1004.0,4.67,0.0
19/09/2015,00:00:00,57.7,0.0,1.0,0.0,25.7,266.6,121.9,1004.2,4.66,0.0
20/09/2015,00:00:00,66.4,0.0,1.0,0.0,24.6,215.4,138.6,1005.2,3.59,0.0
21/09/2015,00:00:00,72.6,0.0,1.0,0.2,24.5,260.4,137.5,1003.9,4.30,0.2
22/09/2015,00:00:00,84.5,26.2,1.2,360.1,21.8,74.5,87.7,1000.6,1.26,360.1
23/09/2015,00:00:00,86.2,13.8,1.1,479.7,20.9,161.4,144.3,997.3,2.65,479.7
24/09/2015,00:00:00,74.8,0.0,1.1,0.0,22.9,224.0,176.7,1002.6,3.66,0.0
25/09/2015,00:00:00,75.2,0.0,0.9,0.0,23.6,259.8,138.8,1007.1,4.09,0.0
26/09/2015,00:00:00,73.4,0.0,1.1,0.0,23.8,261.8,145.4,1006.8,4.34,0.0
27/09/2015,00:00:00,73.9,0.0,0.9,0.0,23.9,165.6,179.6,1005.2,2.86,0.0
28/09/2015,00:00:00,71.9,0.0,1.1,0.0,23.2,214.7,184.6,1006.7,3.48,0.0
29/09/2015,00:00:00,78.5,4.4,1.1,30.0,22.9,200.2,136.2,1007.6,3.01,30.0
30/09/2015,00:00:00,71.4,0.0,1.2,0.0,22.6,252.5,145.6,1007.7,4.23,0.0
01/10/2015,00:00:00,70.1,0.0,1.9,0.0,22.2,209.9,163.7,1007.9,3.81,0.0
02/10/2015,00:00:00,68.2,0.0,2.5,0.0,21.2,250.1,186.6,1010.2,4.18,0.0
03/10/2015,00:00:00,67.6,0.0,1.8,0.0,20.6,240.2,153.0,1013.3,4.07,0.0
04/10/2015,00:00:00,65.6,0.0,2.1,0.0,20.7,253.3,161.5,1015.2,4.39,0.0
05/10/2015,00:00:00,62.4,0.0,2.6,0.0,21.0,245.1,161.2,1013.6,4.52,0.0
06/10/2015,00:00:00,66.7,0.0,1.4,0.0,22.5,236.4,142.2,1008.2,4.03,0.0
07/10/2015,00:00:00,68.6,0.0,1.5,0.0,22.7,237.4,156.4,1003.0,4.15,0.0
08/10/2015,00:00:00,71.0,0.0,1.2,0.0,23.1,232.2,159.9,1002.3,3.81,0.0
09/10/2015,00:00:00,67.6,0.0,2.0,0.0,24.5,171.8,218.5,1003.9,3.86,0.0
10/10/2015,00:00:00,70.8,0.0,1.1,0.0,22.5,218.8,139.8,1008.2,3.53,0.0
11/10/2015,00:00:00,72.5,0.0,1.3,0.0,22.4,204.1,142.9,1008.7,3.34,0.0
12/10/2015,00:00:00,62.9,0.0,0.9,0.0,24.1,80.9,71.9,1005.7,1.71,0.0
13/10/2015,00:00:00,72.7,0.0,1.4,0.0,23.6,210.9,216.6,1006.2,3.66,0.0
14/10/2015,00:00:00,67.2,0.0,1.2,0.0,21.8,228.9,150.5,1008.0,3.80,0.0
15/10/2015,00:00:00,66.0,0.0,1.2,0.0,20.8,204.9,145.1,1009.4,3.48,0.0
16/10/2015,00:00:00,69.2,0.0,0.9,0.0,19.9,223.8,116.5,1010.0,3.42,0.0
17/10/2015,00:00:00,74.5,0.0,0.9,0.0,20.1,201.4,141.4,1009.9,3.16,0.0
18/10/2015,00:00:00,77.8,0.0,1.0,0.0,21.1,182.9,131.5,1010.4,3.03,0.0
19/10/2015,00:00:00,72.0,0.0,1.1,0.0,21.4,199.9,129.6,1010.0,3.29,0.0
20/10/2015,00:00:00,68.3,0.0,0.9,0.0,22.4,219.2,135.8,1008.4,3.69,0.0
21/10/2015,00:00:00,70.9,0.0,1.2,0.0,23.4,197.1,180.6,1006.2,3.30,0.0
22/10/2015,00:00:00,83.9,0.8,1.0,60.0,21.4,54.1,180.1,1005.3,0.87,60.0
23/10/2015,00:00:00,79.9,3.5,0.9,60.5,22.5,80.7,145.6,1001.1,1.48,60.5
24/10/2015,00:00:00,93.8,96.9,5.4,749.5,18.8,63.2,206.0,998.0,0.54,749.5
25/10/2015,00:00:00,78.9,0.2,1.0,31.0,18.8,177.3,186.1,1003.4,2.69,31.0
26/10/2015,00:00:00,77.3,2.4,2.0,149.9,18.0,195.7,167.5,1007.1,3.03,149.9
27/10/2015,00:00:00,71.6,0.0,2.5,0.0,17.0,206.5,151.1,1008.5,3.22,0.0
28/10/2015,00:00:00,70.4,0.0,2.0,0.0,16.4,197.7,133.4,1008.7,3.05,0.0
29/10/2015,00:00:00,62.9,0.0,2.6,0.0,16.0,202.4,159.3,1007.7,3.34,0.0
30/10/2015,00:00:00,65.2,0.0,2.3,0.0,15.6,189.3,141.5,1008.0,2.99,0.0
31/10/2015,00:00:00,70.8,0.0,1.1,0.0,16.6,178.0,124.7,1010.5,2.82,0.0
01/11/2015,00:00:00,72.1,0.0,1.0,0.0,16.7,131.7,119.4,1013.6,2.12,0.0
02/11/2015,00:00:00,72.4,0.0,2.3,0.0,16.7,132.8,172.2,1016.5,2.28,0.0
03/11/2015,00:00:00,74.5,0.0,2.2,0.0,15.8,160.9,154.8,1016.5,2.42,0.0
04/11/2015,00:00:00,71.5,0.0,1.9,0.0,15.1,185.0,136.5,1014.3,2.81,0.0
05/11/2015,00:00:00,71.9,0.0,1.0,0.0,15.3,188.0,116.6,1011.1,2.70,0.0
06/11/2015,00:00:00,69.6,0.0,1.1,0.0,15.6,188.7,110.8,1009.8,2.76,0.0
07/11/2015,00:00:00,69.0,0.0,1.1,0.0,15.5,187.6,113.5,1011.1,2.73,0.0
08/11/2015,00:00:00,73.6,0.0,1.3,0.0,15.6,181.8,126.4,1013.2,2.71,0.0
09/11/2015,00:00:00,68.4,0.0,2.2,0.0,15.3,180.4,141.6,1014.9,2.88,0.0
10/11/2015,00:00:00,61.3,0.0,1.6,0.0,16.1,184.5,128.9,1013.1,3.06,0.0
11/11/2015,00:00:00,57.8,0.0,1.5,0.0,16.9,180.7,121.7,1010.8,3.12,0.0
12/11/2015,00:00:00,60.9,0.0,1.6,0.0,17.9,167.0,111.1,1012.5,2.88,0.0
13/11/2015,00:00:00,68.1,0.0,1.1,0.0,17.6,173.3,120.8,1015.5,2.64,0.0
14/11/2015,00:00:00,73.5,0.0,1.0,0.0,17.2,172.0,125.3,1017.5,2.55,0.0
15/11/2015,00:00:00,73.0,0.0,1.1,0.0,17.4,143.0,105.6,1014.4,2.03,0.0
16/11/2015,00:00:00,74.8,0.0,1.0,0.0,16.8,141.7,125.6,1007.9,2.15,0.0
17/11/2015,00:00:00,69.0,0.0,1.6,0.0,16.1,164.7,126.2,1005.5,2.72,0.0
18/11/2015,00:00:00,63.9,0.0,1.7,0.0,16.2,167.2,127.3,1008.9,2.84,0.0
19/11/2015,00:00:00,69.8,0.0,1.1,0.0,16.1,166.9,120.1,1011.4,2.47,0.0
20/11/2015,00:00:00,72.0,0.0,1.0,0.0,16.5,165.6,111.7,1013.3,2.42,0.0
21/11/2015,00:00:00,78.4,0.0,1.0,0.0,15.7,156.8,125.2,1012.3,2.13,0.0
22/11/2015,00:00:00,80.6,0.0,1.1,0.0,16.2,155.2,127.5,1006.8,2.08,0.0
23/11/2015,00:00:00,82.6,0.0,1.0,0.1,18.6,120.0,109.2,1007.5,1.84,0.1
24/11/2015,00:00:00,81.0,9.4,1.1,149.9,17.9,140.6,126.1,1013.6,2.14,149.9
25/11/2015,00:00:00,76.3,0.0,1.0,0.1,16.5,153.8,123.6,1015.2,2.10,0.1
26/11/2015,00:00:00,83.1,3.6,1.1,90.1,17.3,64.7,105.7,1007.0,1.08,90.1
27/11/2015,00:00:00,80.0,8.6,1.5,240.0,17.1,92.0,226.5,999.4,1.53,240.0
28/11/2015,00:00:00,84.0,21.8,1.3,300.0,16.4,125.4,157.5,1003.5,1.96,300.0
29/11/2015,00:00:00,79.1,16.6,1.7,269.9,16.8,101.5,258.5,1006.6,1.42,269.9
30/11/2015,00:00:00,79.0,1.0,1.3,119.9,14.9,138.0,141.3,1010.7,1.97,119.9
01/12/2015,00:00:00,73.9,0.0,1.9,0.0,13.5,118.0,145.2,1013.0,1.90,0.0
02/12/2015,00:00:00,68.3,0.0,1.3,0.0,12.6,143.2,104.1,1015.8,2.02,0.0
03/12/2015,00:00:00,71.1,0.0,1.4,0.0,14.0,143.6,110.3,1015.8,2.13,0.0
04/12/2015,00:00:00,69.8,0.0,1.3,0.0,13.5,138.1,124.3,1019.8,2.06,0.0
05/12/2015,00:00:00,66.3,0.0,1.8,0.0,12.3,154.3,122.4,1022.1,2.38,0.0
06/12/2015,00:00:00,72.0,0.0,1.9,0.0,11.3,151.8,125.6,1023.6,2.09,0.0
07/12/2015,00:00:00,76.2,0.0,1.0,0.0,11.5,151.0,112.8,1025.2,1.92,0.0
08/12/2015,00:00:00,77.2,0.0,1.0,0.0,12.0,150.7,87.5,1022.8,1.99,0.0
09/12/2015,00:00:00,78.0,0.0,1.4,0.0,12.3,152.4,119.5,1021.0,2.04,0.0
10/12/2015,00:00:00,75.1,0.0,2.4,0.0,12.2,142.3,143.5,1017.9,2.05,0.0
11/12/2015,00:00:00,75.7,0.0,2.1,0.0,12.0,152.3,141.8,1016.8,2.04,0.0
12/12/2015,00:00:00,79.9,0.4,1.2,60.0,11.8,61.4,119.0,1014.7,0.92,60.0
13/12/2015,00:00:00,70.8,0.0,1.6,0.0,11.4,141.9,148.8,1010.1,1.96,0.0
14/12/2015,00:00:00,72.8,0.0,1.9,0.0,11.3,143.5,132.5,1012.8,2.02,0.0
15/12/2015,00:00:00,73.0,0.0,1.2,0.0,11.4,144.4,101.2,1014.4,1.86,0.0
16/12/2015,00:00:00,77.1,0.0,1.2,0.0,12.1,108.8,112.5,1015.4,1.46,0.0
17/12/2015,00:00:00,72.7,0.0,1.6,0.0,11.6,133.7,116.2,1014.0,1.82,0.0
18/12/2015,00:00:00,71.5,0.0,1.4,0.0,11.3,124.3,118.9,1011.5,1.76,0.0
19/12/2015,00:00:00,77.2,0.0,1.0,0.0,10.9,90.6,117.7,1012.5,1.13,0.0
20/12/2015,00:00:00,72.8,0.0,2.4,0.0,10.3,144.1,139.9,1014.8,1.98,0.0
21/12/2015,00:00:00,74.8,0.0,1.3,0.0,11.2,138.1,124.4,1019.7,1.78,0.0
22/12/2015,00:00:00,77.9,0.0,1.2,0.0,11.5,140.6,114.9,1022.0,1.83,0.0
23/12/2015,00:00:00,77.5,0.0,1.2,0.0,11.0,147.2,95.5,1021.4,1.88,0.0
24/12/2015,00:00:00,73.5,0.0,1.6,0.0,11.6,143.4,109.9,1020.7,2.00,0.0
25/12/2015,00:00:00,73.2,0.0,1.2,0.0,12.7,145.0,107.0,1021.0,1.96,0.0
26/12/2015,00:00:00,74.4,0.0,1.1,0.0,12.0,142.7,114.6,1020.9,1.87,0.0
27/12/2015,00:00:00,74.5,0.0,1.2,0.0,12.2,141.8,119.1,1020.2,1.89,0.0
28/12/2015,00:00:00,74.1,0.0,1.1,0.0,11.3,129.3,90.2,1021.1,1.54,0.0
29/12/2015,00:00:00,77.2,0.0,1.1,0.0,12.2,112.2,98.7,1019.3,1.73,0.0
30/12/2015,00:00:00,72.4,0.0,1.5,0.0,12.7,142.9,125.9,1013.8,2.09,0.0
31/12/2015,00:00:00,61.8,0.0,1.8,0.0,12.4,125.9,130.5,1011.9,2.06,0.0
01/01/2016,00:00:00,61.0,0.0,2.5,0.0,7.6,53.7,239.6,1012.5,1.14,0.0
02/01/2016,00:00:00,60.7,0.0,1.8,0.1,5.8,134.1,161.6,1017.7,1.87,0.1
03/01/2016,00:00:00,87.1,1.4,1.5,150.0,7.5,31.3,92.3,1016.0,0.43,150.0
04/01/2016,00:00:00,90.0,7.2,1.0,210.0,11.0,31.4,109.1,1012.6,0.36,210.0
05/01/2016,00:00:00,78.9,2.0,2.5,149.9,15.8,76.9,254.2,1003.7,1.47,149.9
06/01/2016,00:00:00,87.7,0.0,1.6,0.0,16.6,60.4,231.5,1003.9,0.88,0.0
07/01/2016,00:00:00,80.3,0.0,0.9,0.0,15.1,138.7,126.8,1004.9,1.82,0.0
08/01/2016,00:00:00,66.7,0.4,2.6,60.0,14.9,61.0,218.3,996.3,1.57,60.0
09/01/2016,00:00:00,60.0,0.0,4.3,0.0,15.7,146.7,291.1,1004.2,3.10,0.0
10/01/2016,00:00:00,79.3,0.0,1.0,0.0,13.4,151.7,124.9,1011.6,1.96,0.0
11/01/2016,00:00:00,88.4,0.0,0.8,0.0,14.7,55.1,178.8,1011.8,0.83,0.0
12/01/2016,00:00:00,85.0,0.0,1.0,0.0,14.1,156.4,123.1,1012.6,1.90,0.0
13/01/2016,00:00:00,87.7,0.0,0.9,0.0,14.4,114.1,180.0,1011.0,1.79,0.0
14/01/2016,00:00:00,76.2,0.0,1.9,0.0,15.5,129.3,231.5,1008.6,1.87,0.0
15/01/2016,00:00:00,61.3,0.0,3.0,0.0,13.8,160.2,234.4,1011.7,2.77,0.0
16/01/2016,00:00:00,71.3,0.0,1.2,0.0,11.4,118.9,154.3,1012.7,1.66,0.0
17/01/2016,00:00:00,73.7,0.0,1.1,0.3,14.8,74.3,119.9,1006.3,1.29,0.3
18/01/2016,00:00:00,84.6,24.8,1.4,479.8,12.2,41.5,222.1,994.0,0.62,479.8
19/01/2016,00:00:00,65.6,3.0,3.4,209.9,9.1,145.0,289.8,996.6,2.19,209.9
20/01/2016,00:00:00,71.2,0.0,1.7,0.4,7.9,133.3,175.0,1009.5,1.58,0.4
21/01/2016,00:00:00,88.3,24.8,1.0,509.7,10.2,45.6,141.1,1010.0,0.70,509.7
22/01/2016,00:00:00,78.5,1.2,2.1,61.0,11.2,172.4,160.6,1010.7,2.18,61.0
23/01/2016,00:00:00,75.8,0.0,1.2,0.0,9.7,109.9,118.4,1015.2,1.47,0.0
24/01/2016,00:00:00,66.6,0.0,2.5,0.0,7.9,95.8,182.4,1017.0,1.56,0.0
25/01/2016,00:00:00,59.8,0.0,1.5,0.0,6.9,145.7,156.0,1019.7,1.95,0.0
26/01/2016,00:00:00,74.8,0.0,1.0,0.0,6.1,72.8,115.0,1020.5,0.95,0.0
27/01/2016,00:00:00,68.0,0.2,1.2,30.0,8.8,143.7,141.4,1017.4,1.68,30.0
28/01/2016,00:00:00,72.0,0.0,1.0,0.0,7.7,67.8,83.2,1021.2,0.86,0.0
29/01/2016,00:00:00,74.6,0.0,1.1,0.0,9.3,158.2,120.9,1022.8,2.08,0.0
30/01/2016,00:00:00,81.4,0.0,1.0,0.0,11.8,171.0,124.0,1021.6,2.18,0.0
31/01/2016,00:00:00,79.4,0.0,0.8,0.0,12.5,72.9,101.4,1020.5,0.90,0.0
01/02/2016,00:00:00,74.7,0.0,1.3,0.0,12.0,167.1,113.8,1017.7,2.11,0.0
02/02/2016,00:00:00,81.4,0.0,1.4,0.0,12.8,146.1,142.9,1015.4,1.82,0.0
03/02/2016,00:00:00,81.2,0.0,1.1,0.0,13.1,180.3,115.8,1019.4,2.36,0.0
04/02/2016,00:00:00,83.0,0.0,1.1,0.0,12.3,181.7,130.8,1018.5,2.36,0.0
05/02/2016,00:00:00,83.8,0.0,0.9,0.2,13.2,87.2,129.8,1013.2,1.31,0.2
06/02/2016,00:00:00,77.9,9.0,3.1,329.8,12.5,177.5,256.4,1004.6,2.29,329.8
07/02/2016,00:00:00,59.6,0.4,2.0,60.0,9.4,164.6,174.7,1013.5,2.18,60.0
08/02/2016,00:00:00,58.9,0.0,2.4,0.0,8.1,197.7,156.8,1016.9,2.63,0.0
09/02/2016,00:00:00,67.8,0.0,1.4,0.0,8.2,184.4,94.6,1017.3,2.24,0.0
10/02/2016,00:00:00,76.2,0.0,1.2,0.0,9.5,175.1,118.8,1017.1,1.98,0.0
11/02/2016,00:00:00,81.3,0.0,1.2,0.0,12.2,121.6,176.6,1012.6,1.57,0.0
12/02/2016,00:00:00,83.3,0.0,1.7,0.0,15.6,187.0,243.6,1009.5,2.40,0.0
13/02/2016,00:00:00,76.5,0.0,1.1,0.0,14.2,199.0,115.9,1010.6,2.67,0.0
14/02/2016,00:00:00,83.1,0.0,0.9,0.0,14.9,125.1,145.3,1006.7,1.70,0.0
15/02/2016,00:00:00,73.2,0.0,0.9,0.0,16.7,153.0,98.0,1007.2,2.64,0.0
16/02/2016,00:00:00,46.0,0.0,1.1,0.0,18.9,207.5,117.8,1012.8,3.51,0.0
17/02/2016,00:00:00,33.9,0.0,2.3,0.0,20.7,204.3,88.2,1019.6,4.85,0.0
18/02/2016,00:00:00,55.3,0.0,1.0,0.0,17.0,120.6,125.4,1017.5,2.29,0.0
19/02/2016,00:00:00,53.2,0.0,2.3,0.1,19.4,180.5,116.9,1008.3,3.87,0.1
20/02/2016,00:00:00,74.6,1.0,2.7,89.9,16.8,203.4,230.8,1007.9,3.08,89.9
21/02/2016,00:00:00,75.5,0.0,1.6,0.1,14.7,214.3,176.4,1010.7,3.05,0.1
22/02/2016,00:00:00,55.9,2.6,5.9,209.9,13.7,198.0,293.8,1007.6,3.78,209.9
23/02/2016,00:00:00,57.3,0.0,1.2,0.0,15.6,220.7,126.2,1011.3,3.41,0.0
24/02/2016,00:00:00,74.3,0.0,0.9,0.0,14.8,217.5,133.1,1009.6,2.96,0.0
25/02/2016,00:00:00,83.8,0.0,0.8,0.0,14.0,97.4,140.6,1006.8,1.22,0.0
26/02/2016,00:00:00,76.9,0.0,1.3,0.0,14.9,220.6,125.1,1006.4,3.09,0.0
27/02/2016,00:00:00,82.9,0.0,1.2,0.0,13.9,206.7,139.8,1006.2,2.89,0.0
28/02/2016,00:00:00,81.3,0.0,1.1,0.0,13.4,219.2,126.2,1009.0,2.91,0.0
29/02/2016,00:00:00,70.4,0.0,2.0,0.0,13.6,230.1,91.4,1013.6,3.29,0.0
01/03/2016,00:00:00,48.3,0.0,2.6,0.0,17.9,215.3,88.6,1012.6,4.82,0.0
02/03/2016,00:00:00,61.7,0.0,1.6,0.0,18.9,209.5,160.2,1007.1,3.74,0.0
03/03/2016,00:00:00,69.4,0.0,2.4,0.0,15.5,219.8,203.5,1001.4,3.33,0.0
04/03/2016,00:00:00,72.0,0.2,2.0,30.3,14.8,251.8,239.9,999.6,3.36,30.3
05/03/2016,00:00:00,78.6,15.7,2.4,480.7,13.0,140.2,262.8,1001.2,2.20,480.7
06/03/2016,00:00:00,63.2,0.0,2.1,0.0,13.4,251.3,231.2,1007.8,3.61,0.0
07/03/2016,00:00:00,74.6,0.0,1.1,0.0,12.7,236.6,136.0,1008.6,3.02,0.0
08/03/2016,00:00:00,70.3,0.0,2.0,0.0,14.6,241.5,75.4,1004.9,3.43,0.0
09/03/2016,00:00:00,66.7,0.0,1.2,0.0,14.9,227.0,121.9,1001.5,3.36,0.0
10/03/2016,00:00:00,64.7,0.0,2.3,0.1,15.5,233.2,188.9,997.9,3.52,0.1
11/03/2016,00:00:00,71.4,1.6,1.9,119.9,13.7,211.9,229.4,1003.7,2.97,119.9
12/03/2016,00:00:00,63.4,0.0,1.3,0.0,14.0,238.5,131.0,1008.3,3.81,0.0
13/03/2016,00:00:00,41.9,0.0,3.8,0.1,19.3,94.6,81.8,1004.6,4.00,0.1
14/03/2016,00:00:00,73.9,4.2,1.6,209.9,15.5,103.5,163.1,1000.2,1.70,209.9
15/03/2016,00:00:00,74.9,1.0,4.3,90.9,13.1,174.4,289.9,999.9,2.84,90.9
16/03/2016,00:00:00,66.2,0.0,3.7,0.0,12.0,227.1,255.4,1008.3,3.27,0.0
17/03/2016,00:00:00,74.9,0.0,1.2,0.0,11.1,140.4,115.2,1013.1,1.66,0.0
18/03/2016,00:00:00,69.7,0.0,2.3,0.0,10.9,261.7,152.5,1015.8,3.16,0.0
19/03/2016,00:00:00,68.8,0.0,1.8,0.0,13.3,222.5,120.4,1011.4,3.41,0.0
20/03/2016,00:00:00,64.2,0.0,2.9,0.0,15.6,242.4,217.1,1004.9,3.80,0.0
21/03/2016,00:00:00,72.6,0.0,1.2,0.0,13.6,264.8,132.1,1010.2,3.77,0.0
22/03/2016,00:00:00,70.1,0.0,1.3,0.0,13.8,273.5,150.8,1012.8,3.74,0.0
23/03/2016,00:00:00,60.8,0.0,1.1,0.0,15.6,277.3,142.7,1009.9,4.05,0.0
24/03/2016,00:00:00,55.8,0.0,2.2,0.0,17.9,59.9,71.2,1000.1,2.13,0.0
25/03/2016,00:00:00,76.6,0.0,1.9,0.0,16.3,188.3,264.9,1001.1,2.90,0.0
26/03/2016,00:00:00,76.4,0.0,1.0,0.0,15.4,269.5,238.4,1005.6,3.78,0.0
27/03/2016,00:00:00,56.5,0.0,2.8,0.0,13.1,287.7,203.9,1007.5,4.26,0.0
28/03/2016,00:00:00,65.3,0.6,2.2,60.0,12.1,183.8,190.4,1006.4,2.53,60.0
29/03/2016,00:00:00,59.7,0.0,2.9,0.0,12.3,290.6,217.1,1010.2,4.20,0.0
30/03/2016,00:00:00,70.8,0.0,1.6,0.0,13.3,272.4,156.7,1012.8,3.66,0.0
31/03/2016,00:00:00,77.1,0.0,1.2,0.0,15.4,286.2,132.2,1015.0,3.82,0.0
01/04/2016,00:00:00,75.6,0.0,1.1,0.0,14.9,298.4,149.9,1016.6,4.01,0.0
02/04/2016,00:00:00,72.0,0.0,1.1,0.0,14.1,294.4,152.2,1013.9,4.02,0.0
03/04/2016,00:00:00,49.4,0.0,1.0,0.0,15.2,254.0,137.8,1011.6,3.86,0.0
04/04/2016,00:00:00,62.7,0.0,1.0,0.0,16.3,236.7,147.5,1010.0,3.46,0.0
05/04/2016,00:00:00,73.6,0.0,1.1,0.0,16.6,265.1,136.4,1006.7,3.89,0.0
06/04/2016,00:00:00,63.6,0.0,1.1,0.0,17.8,289.2,143.1,1004.4,4.41,0.0
07/04/2016,00:00:00,63.3,0.0,1.1,0.0,17.5,291.3,157.4,1004.0,4.40,0.0
08/04/2016,00:00:00,38.4,0.0,2.3,0.0,20.8,170.6,97.8,1002.1,4.76,0.0
09/04/2016,00:00:00,56.6,0.0,1.7,0.0,22.2,256.5,170.5,999.2,4.93,0.0
10/04/2016,00:00:00,80.2,0.0,1.6,0.0,17.7,274.5,257.1,1000.7,3.69,0.0
11/04/2016,00:00:00,75.4,0.0,1.8,0.0,16.3,269.2,177.2,1002.4,3.93,0.0
12/04/2016,00:00:00,64.0,0.0,2.5,0.0,17.0,145.0,278.0,1003.0,2.80,0.0
13/04/2016,00:00:00,52.8,0.0,3.6,0.0,19.3,304.2,242.3,1004.9,5.61,0.0
14/04/2016,00:00:00,57.6,0.0,1.2,0.0,19.1,314.2,114.3,1006.5,4.99,0.0
15/04/2016,00:00:00,57.4,0.0,1.0,0.0,18.9,297.0,164.0,1006.4,4.57,0.0
16/04/2016,00:00:00,56.9,0.0,1.0,0.0,19.3,298.2,152.1,1007.0,4.71,0.0
17/04/2016,00:00:00,71.2,0.0,1.0,0.0,17.9,305.1,161.2,1011.1,4.43,0.0
18/04/2016,00:00:00,69.1,0.0,1.0,0.0,18.5,313.9,158.0,1012.1,4.73,0.0
19/04/2016,00:00:00,62.3,0.0,1.1,0.0,18.8,327.3,148.8,1011.6,4.98,0.0
20/04/2016,00:00:00,58.4,0.0,1.1,0.0,18.5,325.6,165.4,1009.2,4.87,0.0
21/04/2016,00:00:00,35.7,0.0,0.9,0.0,19.6,158.4,155.8,1007.4,3.05,0.0
22/04/2016,00:00:00,46.3,0.0,2.9,0.0,19.4,315.8,208.0,1008.7,5.64,0.0
23/04/2016,00:00:00,62.0,0.0,1.1,0.0,17.1,326.2,145.0,1010.1,4.89,0.0
24/04/2016,00:00:00,68.6,0.0,1.0,0.0,17.8,305.3,179.1,1004.9,4.43,0.0
25/04/2016,00:00:00,69.5,0.0,1.6,0.0,18.0,319.6,169.4,999.4,4.63,0.0
26/04/2016,00:00:00,76.0,0.0,1.3,0.0,18.5,267.4,215.2,999.5,3.83,0.0
27/04/2016,00:00:00,59.2,0.0,2.6,0.0,17.5,334.4,262.8,1001.0,5.13,0.0
28/04/2016,00:00:00,62.5,0.0,1.2,0.0,15.8,337.2,145.9,1008.3,4.75,0.0
29/04/2016,00:00:00,60.7,0.0,1.4,0.0,17.1,329.2,148.0,1009.5,4.87,0.0
30/04/2016,00:00:00,35.1,0.0,1.4,0.0,21.3,287.1,128.5,1007.2,5.52,0.0
01/05/2016,00:00:00,45.9,0.0,3.5,0.0,22.9,294.4,181.4,1001.8,5.73,0.0
02/05/2016,00:00:00,52.2,0.0,1.6,0.1,20.0,301.6,133.8,1005.2,5.35,0.1
03/05/2016,00:00:00,74.0,0.8,0.8,120.1,18.2,115.6,169.0,1004.8,1.93,120.1
04/05/2016,00:00:00,70.2,9.4,2.2,209.9,17.7,311.9,264.8,1003.4,4.47,209.9
05/05/2016,00:00:00,72.2,0.0,2.7,1.0,17.8,267.6,262.5,1002.2,3.89,1.0
06/05/2016,00:00:00,62.6,0.0,2.6,0.0,17.2,280.0,281.4,1003.1,4.53,0.0
07/05/2016,00:00:00,62.8,0.0,1.8,0.0,16.8,337.5,152.7,1006.5,4.94,0.0
08/05/2016,00:00:00,62.3,0.0,1.2,0.0,16.9,311.2,143.4,1007.7,4.44,0.0
09/05/2016,00:00:00,61.1,0.0,1.5,0.0,18.5,193.0,101.7,1007.5,3.60,0.0
10/05/2016,00:00:00,68.3,0.0,1.2,0.0,18.9,312.6,155.8,1008.3,4.63,0.0
11/05/2016,00:00:00,52.5,0.0,1.7,0.0,20.7,345.4,154.0,1008.2,6.00,0.0
12/05/2016,00:00:00,46.2,0.6,1.1,60.0,21.3,295.1,158.5,1007.3,5.20,60.0
13/05/2016,00:00:00,66.5,0.2,0.9,31.0,22.1,228.4,163.2,1003.7,3.87,31.0
14/05/2016,00:00:00,67.7,0.0,0.8,0.0,23.1,235.7,179.5,1001.5,4.03,0.0
15/05/2016,00:00:00,55.8,0.0,1.1,0.2,23.2,111.0,143.4,1002.9,2.57,0.2
16/05/2016,00:00:00,83.3,6.4,0.9,359.8,19.8,76.9,158.4,1006.2,1.22,359.8
17/05/2016,00:00:00,80.7,0.0,1.1,0.0,18.6,351.3,147.1,1008.3,5.11,0.0
18/05/2016,00:00:00,71.8,0.0,1.6,0.0,19.1,345.8,179.3,1006.5,5.07,0.0
19/05/2016,00:00:00,58.9,0.0,2.0,0.0,19.5,357.4,188.8,1007.0,5.84,0.0
20/05/2016,00:00:00,65.6,0.0,1.2,0.0,18.9,345.1,149.6,1009.6,5.20,0.0
21/05/2016,00:00:00,69.9,0.0,1.1,0.1,19.2,235.3,160.2,1007.9,3.76,0.1
22/05/2016,00:00:00,67.8,1.6,2.1,149.9,20.9,278.1,162.7,1003.3,4.61,149.9
23/05/2016,00:00:00,65.3,0.0,2.7,0.0,19.9,314.0,261.5,1004.4,4.94,0.0
24/05/2016,00:00:00,48.3,0.0,3.6,0.0,21.1,340.2,262.0,1007.8,6.44,0.0
25/05/2016,00:00:00,66.7,0.0,1.2,0.0,19.4,337.6,176.4,1007.5,4.99,0.0
26/05/2016,00:00:00,74.8,0.0,1.6,0.0,19.3,344.3,206.3,1003.6,5.17,0.0
27/05/2016,00:00:00,63.3,0.0,1.1,0.0,20.0,355.1,148.4,1003.4,5.43,0.0
28/05/2016,00:00:00,43.7,0.0,2.5,0.0,23.0,353.8,197.8,1006.3,6.92,0.0
29/05/2016,00:00:00,40.1,0.0,2.6,0.0,24.1,353.6,178.8,1007.3,7.10,0.0
30/05/2016,00:00:00,49.7,0.0,1.1,0.0,23.2,313.7,156.0,1007.6,5.31,0.0
31/05/2016,00:00:00,42.0,0.0,1.0,0.0,24.3,338.1,161.5,1007.3,5.83,0.0
01/06/2016,00:00:00,41.8,0.0,0.9,0.0,25.9,339.5,150.9,1005.9,6.06,0.0
02/06/2016,00:00:00,50.2,0.0,1.1,0.0,24.6,334.2,181.4,1006.4,5.77,0.0
03/06/2016,00:00:00,45.7,0.0,1.1,0.0,25.9,296.9,191.1,1004.1,5.54,0.0
04/06/2016,00:00:00,58.0,0.0,0.7,0.0,24.8,259.0,166.2,1002.0,3.98,0.0
05/06/2016,00:00:00,66.5,0.0,1.2,0.0,22.3,364.1,161.4,1002.0,5.76,0.0
06/06/2016,00:00:00,56.6,0.0,1.0,0.0,23.1,350.8,168.6,1005.2,5.73,0.0
07/06/2016,00:00:00,58.0,0.0,1.1,0.0,23.8,326.2,169.2,1005.6,5.59,0.0
08/06/2016,00:00:00,52.3,0.0,1.2,0.0,23.9,356.7,173.2,1005.2,5.91,0.0
09/06/2016,00:00:00,53.5,0.0,3.5,0.0,23.0,356.2,224.0,1004.6,6.68,0.0
10/06/2016,00:00:00,40.6,0.0,2.6,0.0,22.6,361.9,187.2,1004.3,6.72,0.0
11/06/2016,00:00:00,55.5,0.0,1.1,0.0,21.7,349.9,165.6,1005.1,5.80,0.0
12/06/2016,00:00:00,63.7,0.0,0.9,0.0,22.8,357.5,180.1,1007.0,5.74,0.0
13/06/2016,00:00:00,65.0,0.0,1.2,0.0,22.2,359.6,153.5,1007.7,5.67,0.0
14/06/2016,00:00:00,65.4,0.0,1.0,0.0,22.1,243.1,160.5,1002.8,3.87,0.0
15/06/2016,00:00:00,57.9,0.0,1.9,0.0,25.6,321.7,175.6,996.8,5.36,0.0
16/06/2016,00:00:00,76.9,0.0,1.6,0.0,22.5,362.0,158.9,1002.3,5.53,0.0
17/06/2016,00:00:00,50.9,0.0,1.0,0.0,26.6,359.5,155.9,1005.8,6.41,0.0
18/06/2016,00:00:00,34.7,0.0,1.1,0.0,29.3,348.2,149.4,1006.2,6.61,0.0
19/06/2016,00:00:00,27.7,0.0,1.2,0.0,32.5,340.6,177.3,1004.0,7.19,0.0
20/06/2016,00:00:00,30.1,0.0,0.8,0.0,31.0,338.6,159.7,1002.0,6.43,0.0
21/06/2016,00:00:00,45.3,0.0,0.8,0.0,27.8,349.8,167.0,1004.0,6.23,0.0
22/06/2016,00:00:00,40.6,0.0,1.1,0.0,29.8,346.1,147.5,1004.3,6.66,0.0
23/06/2016,00:00:00,42.8,0.0,2.1,0.0,29.8,354.8,180.0,1003.1,7.66,0.0
24/06/2016,00:00:00,46.8,0.0,2.9,0.0,29.1,349.0,189.9,1002.6,7.57,0.0
25/06/2016,00:00:00,50.8,0.0,0.9,0.0,29.0,338.2,147.5,1000.4,6.26,0.0